• In Deutschland
  • Länderverzeichnis
  • Für 7 Tage
  • Wassertemperatur
  • Satellitenkarten
  • Wetterkarte
  • Widgets
  • user-avatar
    Anmelden

    Stündliche Wetter Mykhailopil'

    Heute, 23 Juli, Montag

    Zeit Temperatur Niederschläge Wind Luftdruck Luftfeuchtigkeit
    00:00 +24°C° 0 mm 2 m/S 750 mmHg 62%
    01:00 +23°C° 0 mm 2 m/S 750 mmHg 65%
    02:00 +23°C° 0 mm 2 m/S 749 mmHg 67%
    03:00 +21°C° 0 mm 2 m/S 749 mmHg 69%
    04:00 +21°C° 0 mm 2 m/S 749 mmHg 72%
    05:00 +21°C° 0 mm 2 m/S 749 mmHg 74%
    06:00 +24°C° 0 mm 2 m/S 749 mmHg 69%
    07:00 +25°C° 0 mm 2 m/S 749 mmHg 63%
    08:00 +27°C° 0 mm 2 m/S 749 mmHg 58%
    09:00 +28°C° 0 mm 3 m/S 749 mmHg 53%
    10:00 +29°C° 0 mm 3 m/S 749 mmHg 47%
    11:00 +31°C° 0 mm 3 m/S 748 mmHg 42%
    12:00 +31°C° 0 mm 3 m/S 748 mmHg 40%
    13:00 +33°C° 0 mm 3 m/S 748 mmHg 37%
    14:00 +33°C° 0 mm 3 m/S 748 mmHg 35%
    15:00 +33°C° 0 mm 3 m/S 748 mmHg 37%
    16:00 +33°C° 0 mm 3 m/S 747 mmHg 38%
    17:00 +31°C° 0 mm 3 m/S 747 mmHg 40%
    18:00 +30°C° 0 mm 3 m/S 747 mmHg 45%
    19:00 +29°C° 0 mm 3 m/S 747 mmHg 50%
    20:00 +27°C° 0 mm 3 m/S 747 mmHg 55%
    21:00 +26°C° 0 mm 2 m/S 747 mmHg 60%
    22:00 +25°C° 0 mm 2 m/S 747 mmHg 65%
    23:00 +24°C° 0 mm 2 m/S 747 mmHg 70%

    Morgen, 24 Juli, Dienstag

    Zeit Temperatur Niederschläge Wind Luftdruck Luftfeuchtigkeit
    00:00 +24°C° 0,1 mm 1 m/S 747 mmHg 72%
    01:00 +23°C° 0,1 mm 1 m/S 747 mmHg 74%
    02:00 +23°C° 0,1 mm 1 m/S 747 mmHg 76%
    03:00 +22°C° 0,2 mm 1 m/S 747 mmHg 78%
    04:00 +22°C° 0,2 mm 1 m/S 747 mmHg 79%
    05:00 +22°C° 0,2 mm 1 m/S 747 mmHg 81%
    06:00 +24°C° 0 mm 1 m/S 748 mmHg 73%
    07:00 +26°C° 0 mm 1 m/S 748 mmHg 66%
    08:00 +27°C° 0 mm 1 m/S 748 mmHg 59%
    09:00 +29°C° 0,1 mm 1 m/S 748 mmHg 53%
    10:00 +30°C° 0,1 mm 2 m/S 748 mmHg 47%
    11:00 +33°C° 0,1 mm 3 m/S 748 mmHg 41%
    12:00 +33°C° 0 mm 3 m/S 748 mmHg 40%
    13:00 +33°C° 0 mm 3 m/S 748 mmHg 40%
    14:00 +33°C° 0 mm 3 m/S 748 mmHg 39%
    15:00 +33°C° 0 mm 3 m/S 748 mmHg 40%
    16:00 +32°C° 0 mm 2 m/S 748 mmHg 41%
    17:00 +31°C° 0 mm 2 m/S 748 mmHg 41%
    18:00 +30°C° 0 mm 2 m/S 748 mmHg 46%
    19:00 +28°C° 0 mm 2 m/S 748 mmHg 50%
    20:00 +27°C° 0 mm 1 m/S 748 mmHg 55%
    21:00 +26°C° 0,1 mm 1 m/S 748 mmHg 58%
    22:00 +26°C° 0,1 mm 1 m/S 748 mmHg 61%
    23:00 +25°C° 0,1 mm 1 m/S 749 mmHg 63%

    übermorgen, 25 Juli, Mittwoch

    Zeit Temperatur Niederschläge Wind Luftdruck Luftfeuchtigkeit
    00:00 +25°C° 0,1 mm 1 m/S 749 mmHg 65%
    01:00 +24°C° 0,1 mm 2 m/S 749 mmHg 67%
    02:00 +24°C° 0,1 mm 2 m/S 748 mmHg 69%
    03:00 +23°C° 0 mm 2 m/S 748 mmHg 70%
    04:00 +23°C° 0 mm 2 m/S 749 mmHg 71%
    05:00 +23°C° 0 mm 2 m/S 749 mmHg 72%
    06:00 +25°C° 0 mm 2 m/S 749 mmHg 66%
    07:00 +27°C° 0 mm 2 m/S 749 mmHg 59%
    08:00 +29°C° 0 mm 3 m/S 749 mmHg 53%
    09:00 +30°C° 0 mm 3 m/S 749 mmHg 48%
    10:00 +33°C° 0 mm 3 m/S 749 mmHg 43%
    11:00 +34°C° 0 mm 3 m/S 749 mmHg 38%
    12:00 +34°C° 0 mm 3 m/S 749 mmHg 37%
    13:00 +34°C° 0 mm 2 m/S 749 mmHg 36%
    14:00 +35°C° 0 mm 2 m/S 749 mmHg 35%
    15:00 +35°C° 0 mm 2 m/S 749 mmHg 35%
    16:00 +35°C° 0 mm 2 m/S 749 mmHg 35%
    17:00 +35°C° 0 mm 2 m/S 749 mmHg 34%
    18:00 +34°C° 0 mm 2 m/S 749 mmHg 38%
    19:00 +31°C° 0 mm 2 m/S 749 mmHg 41%
    20:00 +30°C° 0 mm 2 m/S 749 mmHg 45%
    21:00 +29°C° 0,3 mm 2 m/S 749 mmHg 49%
    22:00 +28°C° 0,3 mm 2 m/S 750 mmHg 54%
    23:00 +27°C° 0,3 mm 2 m/S 750 mmHg 58%

    26 Juli, Donnerstag

    Zeit Temperatur Niederschläge Wind Luftdruck Luftfeuchtigkeit
    00:00 +26°C° 0,2 mm 2 m/S 750 mmHg 61%
    01:00 +26°C° 0,2 mm 2 m/S 750 mmHg 63%
    02:00 +25°C° 0,2 mm 2 m/S 750 mmHg 65%
    03:00 +25°C° 0,1 mm 2 m/S 750 mmHg 68%
    04:00 +25°C° 0,1 mm 2 m/S 750 mmHg 70%
    05:00 +24°C° 0,1 mm 2 m/S 750 mmHg 73%
    06:00 +26°C° 0 mm 2 m/S 751 mmHg 67%
    07:00 +28°C° 0 mm 3 m/S 751 mmHg 62%
    08:00 +30°C° 0 mm 3 m/S 751 mmHg 56%
    09:00 +31°C° 0 mm 3 m/S 751 mmHg 51%
    10:00 +34°C° 0 mm 3 m/S 751 mmHg 45%
    11:00 +35°C° 0 mm 3 m/S 751 mmHg 39%
    12:00 +35°C° 0 mm 3 m/S 751 mmHg 39%
    13:00 +35°C° 0 mm 3 m/S 751 mmHg 38%
    14:00 +35°C° 0 mm 3 m/S 751 mmHg 38%
    15:00 +35°C° 0 mm 3 m/S 751 mmHg 38%
    16:00 +35°C° 0 mm 3 m/S 751 mmHg 39%
    17:00 +35°C° 0 mm 3 m/S 751 mmHg 40%
    18:00 +33°C° 0,2 mm 3 m/S 751 mmHg 45%
    19:00 +31°C° 0,2 mm 3 m/S 751 mmHg 50%
    20:00 +30°C° 0,2 mm 4 m/S 751 mmHg 55%
    21:00 +28°C° 1 mm 3 m/S 751 mmHg 61%
    22:00 +27°C° 1 mm 3 m/S 751 mmHg 68%
    23:00 +26°C° 1 mm 3 m/S 751 mmHg 74%

    27 Juli, Freitag

    Zeit Temperatur Niederschläge Wind Luftdruck Luftfeuchtigkeit
    00:00 +26°C° 0,1 mm 3 m/S 751 mmHg 76%
    01:00 +26°C° 0,1 mm 3 m/S 751 mmHg 77%
    02:00 +25°C° 0,1 mm 3 m/S 751 mmHg 79%
    03:00 +25°C° 0 mm 3 m/S 751 mmHg 81%
    04:00 +25°C° 0 mm 3 m/S 751 mmHg 83%
    05:00 +24°C° 0 mm 3 m/S 751 mmHg 85%
    06:00 +26°C° 0 mm 4 m/S 751 mmHg 79%
    07:00 +27°C° 0 mm 4 m/S 751 mmHg 73%
    08:00 +29°C° 0 mm 4 m/S 751 mmHg 67%
    09:00 +32°C° 0 mm 4 m/S 751 mmHg 60%
    10:00 +33°C° 0 mm 3 m/S 751 mmHg 52%
    11:00 +35°C° 0 mm 3 m/S 751 mmHg 45%
    12:00 +35°C° 0 mm 3 m/S 751 mmHg 42%
    13:00 +36°C° 0 mm 2 m/S 751 mmHg 39%
    14:00 +37°C° 0 mm 2 m/S 750 mmHg 35%
    15:00 +37°C° 0 mm 2 m/S 750 mmHg 36%
    16:00 +36°C° 0 mm 2 m/S 750 mmHg 37%
    17:00 +36°C° 0 mm 2 m/S 750 mmHg 38%
    18:00 +35°C° 0 mm 2 m/S 750 mmHg 43%
    19:00 +33°C° 0 mm 3 m/S 750 mmHg 48%
    20:00 +31°C° 0 mm 3 m/S 751 mmHg 52%
    21:00 +30°C° 0,2 mm 3 m/S 750 mmHg 58%
    22:00 +29°C° 0,2 mm 4 m/S 750 mmHg 63%
    23:00 +28°C° 0,2 mm 4 m/S 750 mmHg 69%

    28 Juli, Samstag

    Zeit Temperatur Niederschläge Wind Luftdruck Luftfeuchtigkeit
    00:00 +27°C° 1,4 mm 3 m/S 750 mmHg 73%
    01:00 +27°C° 1,4 mm 2 m/S 750 mmHg 78%
    02:00 +26°C° 1,4 mm 2 m/S 750 mmHg 82%
    03:00 +26°C° 0 mm 2 m/S 750 mmHg 81%
    04:00 +26°C° 0 mm 2 m/S 750 mmHg 80%
    05:00 +26°C° 0 mm 2 m/S 750 mmHg 79%
    06:00 +27°C° 0 mm 3 m/S 750 mmHg 75%
    07:00 +28°C° 0 mm 3 m/S 750 mmHg 70%
    08:00 +30°C° 0 mm 3 m/S 750 mmHg 65%
    09:00 +31°C° 0 mm 3 m/S 750 mmHg 59%
    10:00 +33°C° 0 mm 3 m/S 750 mmHg 52%
    11:00 +35°C° 0 mm 2 m/S 750 mmHg 45%
    12:00 +35°C° 0 mm 2 m/S 750 mmHg 42%
    13:00 +36°C° 0 mm 2 m/S 750 mmHg 40%
    14:00 +37°C° 0 mm 2 m/S 750 mmHg 37%
    15:00 +36°C° 0 mm 2 m/S 750 mmHg 38%
    16:00 +36°C° 0 mm 2 m/S 749 mmHg 40%
    17:00 +35°C° 0 mm 2 m/S 749 mmHg 41%
    18:00 +34°C° 0 mm 2 m/S 750 mmHg 44%
    19:00 +32°C° 0 mm 2 m/S 750 mmHg 48%
    20:00 +31°C° 0 mm 2 m/S 750 mmHg 51%
    21:00 +30°C° 0 mm 2 m/S 750 mmHg 55%
    22:00 +29°C° 0 mm 3 m/S 750 mmHg 59%
    23:00 +28°C° 0 mm 3 m/S 750 mmHg 62%
    Mehr zeigen